| time (UTC) | temp F | wind direction | speed MPH | gust MPH | rain 1hr in | rain 24hr in | rain mn in | humidity % | barometer mb |
| 20260507030839 | 61 | 312 | 1.0 | 3.0 | 0.00 | 0.01 | 0.00 | 76 | 1012.0 |
| 20260507025839 | 62 | 298 | 0.0 | 3.0 | 0.00 | 0.01 | 0.00 | 74 | 1011.8 |
| 20260507024839 | 62 | 298 | 2.0 | 3.0 | 0.00 | 0.01 | 0.00 | 73 | 1011.7 |
| 20260507023839 | 62 | 284 | 0.0 | 7.0 | 0.00 | 0.01 | 0.00 | 73 | 1011.6 |
| 20260507022839 | 61 | 280 | 3.0 | 7.0 | 0.00 | 0.01 | 0.00 | 75 | 1011.6 |
| 20260507021839 | 61 | 17 | 2.0 | 7.0 | 0.00 | 0.01 | 0.00 | 75 | 1011.4 |
| 20260507020859 | 62 | 14 | 2.0 | 9.0 | 0.00 | 0.01 | 0.00 | 75 | 1011.6 |
| 20260507015839 | 62 | 299 | 0.0 | 9.0 | 0.00 | 0.01 | 0.00 | 74 | 1011.4 |
| 20260506225838 | 62 | 293 | 2.0 | 8.0 | 0.00 | 0.01 | 0.00 | 76 | 1011.8 |
| 20260506224838 | 63 | 299 | 0.0 | 8.0 | 0.00 | 0.01 | 0.00 | 75 | 1011.8 |
| 20260506223838 | 63 | 118 | 2.0 | 3.0 | 0.00 | 0.01 | 0.00 | 77 | 1012.0 |
| 20260506222838 | 63 | 118 | 0.0 | 2.0 | 0.00 | 0.01 | 0.00 | 76 | 1011.9 |
| 20260506221838 | 64 | 118 | 0.0 | 2.0 | 0.00 | 0.01 | 0.00 | 74 | 1011.7 |
| 20260506220838 | 63 | 118 | 3.0 | 3.0 | 0.00 | 0.01 | 0.01 | 75 | 1011.6 |
| 20260506153837 | 67 | 122 | 1.0 | 6.0 | 0.00 | 0.01 | 0.01 | 76 | 1010.6 |
| 20260506152837 | 67 | 99 | 3.0 | 6.0 | 0.00 | 0.01 | 0.01 | 76 | 1010.4 |
| 20260506151837 | 67 | 178 | 2.0 | 4.0 | 0.00 | 0.01 | 0.01 | 76 | 1010.7 |
| 20260506150837 | 67 | 110 | 5.0 | 5.0 | 0.00 | 0.01 | 0.01 | 76 | 1010.6 |
| 20260506084835 | 63 | 119 | 1.0 | 3.0 | 0.00 | 0.03 | 0.01 | 82 | 1011.9 |
| 20260506083835 | 63 | 148 | 2.0 | 6.0 | 0.00 | 0.03 | 0.01 | 82 | 1011.9 |
| 20260506082855 | 63 | 118 | 1.0 | 3.0 | 0.00 | 0.03 | 0.01 | 85 | 1011.9 |
| 20260506081835 | 62 | 86 | 1.0 | 3.0 | 0.00 | 0.03 | 0.01 | 86 | 1011.8 |
| 20260506080835 | 62 | 108 | 1.0 | 3.0 | 0.00 | 0.07 | 0.01 | 87 | 1011.7 |
| 20260506072855 | 62 | 108 | 0.0 | 3.0 | 0.00 | 0.08 | 0.01 | 87 | 1011.6 |
| 20260506071835 | 62 | 131 | 2.0 | 3.0 | 0.00 | 0.08 | 0.01 | 87 | 1011.7 |